Location: Asheville, NC
(35.6000°N, 82.5500°W)
Time: 17:30:13
(UTC-04:00)

Vanguard 2 Rocket - Pass Details

Date: 07 December 2017
Orbit: 554 x 3327 km, 32.9° (Epoch: 20 July)

Event Time Altitude Azimuth Distance (km) Brightness Sun altitude
Rises 19:07:46 0° 209° (SSW) 5,132 11.4 -21.9°
Reaches altitude 10° 19:11:03 10° 201° (SSW) 4,488 10.8 -22.6°
Maximum altitude 19:23:00 37° 139° (SE) 3,733 9.7 -25.0°
Enters shadow 19:29:29 30° 105° (ESE) 4,454 9.8 -26.3°
Drops below altitude 10° 19:39:40 10° 81° (E) 6,252 - -28.3°
Sets 19:45:15 0° 75° (ENE) 7,318 - -29.4°
